Champaign, IL

9:39 AM CDT on October 22, 2019 (GMT -0500)
Univ Of Illinois-Willard

Weather History for KCMI - May, 2019

Change the Weather History Date:

Monday, May 20, 2019

  Actual Average Record
Temperature  
Mean Temperature 56 °F 64 °F  
Max Temperature 62 °F 77 °F 94 °F (2012)
Min Temperature 49 °F 53 °F 37 °F (2002)
Degree Days  
Heating Degree Days 9 4  
Month to date heating degree days 124 114  
Since 1 July heating degree days 5887 5778  
Cooling Degree Days 0 3  
Month to date cooling degree days 30 38  
Year to date cooling degree days 33 49  
Growing Degree Days 4 (Base 50)    
Moisture  
Dew Point 44 °F    
Average Humidity 69    
Maximum Humidity 86    
Minimum Humidity 51    
Precipitation  
Precipitation 0.00 in 0.15 in 1.13 in (2017)
Month to date precipitation 2.48 3.02  
Year to date precipitation 14.62 13.63  
Sea Level Pressure  
Sea Level Pressure 30.05 in    
Wind  
Wind Speed 13 mph (NW)    
Max Wind Speed 20 mph    
Max Gust Speed 27 mph    
Visibility 10 miles    
Events      
T = Trace of Precipitation, MM = Missing Value Source: NWS Daily Summary

Daily Weather History Graph

Daily Weather History Graph

Search for Another Location

Airport or City:

Astronomy

May. 20, 2019 Rise Set
Actual Time 5:33 AM CDT 8:06 PM CDT
Civil Twilight 5:02 AM CDT 8:37 PM CDT
Nautical Twilight 4:23 AM CDT 9:16 PM CDT
Astronomical Twilight 3:40 AM CDT 9:59 PM CDT
Moon 10:06 PM CDT (5/20) 7:01 AM CDT (5/20)
Length of Visible Light 15h 34m
Length of Day
14h 32m
Waning Gibbous, 96% of the Moon is Illuminated
May 20
Waning Gibbous
May 26
Last Quarter
Jun 3
New
Jun 10
First Quarter
Jun 17
Full

Hourly Weather History & Observations

Time (CDT) Temp. Dew Point Humidity Pressure Visibility Wind Dir Wind Speed Gust Speed Precip Events Conditions
12:53 AM 57.0 °F 48.9 °F 74% 29.91 in 10.0 mi West 10.4 mph - N/A   Overcast
1:53 AM 55.9 °F 50.0 °F 80% 29.94 in 10.0 mi West 9.2 mph - N/A   Overcast
2:53 AM 53.1 °F 48.9 °F 86% 29.94 in 10.0 mi West 6.9 mph - N/A   Clear
3:53 AM 52.0 °F 46.0 °F 80% 29.95 in 10.0 mi West 9.2 mph - N/A   Clear
4:53 AM 50.0 °F 45.0 °F 83% 29.96 in 10.0 mi West 8.1 mph - N/A   Clear
5:53 AM 48.9 °F 45.0 °F 86% 29.98 in 10.0 mi WSW 8.1 mph - N/A   Clear
6:53 AM 53.1 °F 46.9 °F 80% 30.01 in 10.0 mi West 12.7 mph - N/A   Scattered Clouds
7:00 AM 53.1 °F 46.9 °F 80% 30.01 in 10.0 mi West 13.8 mph - N/A   Mostly Cloudy
7:11 AM 53.1 °F 46.9 °F 80% 30.02 in 10.0 mi West 13.8 mph - N/A   Scattered Clouds
7:53 AM 54.0 °F 45.0 °F 72% 30.02 in 10.0 mi WNW 17.3 mph - N/A   Mostly Cloudy
8:53 AM 54.0 °F 45.0 °F 72% 30.05 in 10.0 mi WNW 16.1 mph - N/A   Overcast
9:53 AM 54.0 °F 45.0 °F 72% 30.07 in 10.0 mi WNW 15.0 mph - N/A   Overcast
10:53 AM 55.9 °F 44.1 °F 64% 30.09 in 10.0 mi NW 15.0 mph - N/A   Overcast
11:18 AM 55.9 °F 44.1 °F 64% 30.10 in 10.0 mi WNW 15.0 mph - N/A   Overcast
11:53 AM 55.9 °F 44.1 °F 64% 30.10 in 10.0 mi NW 13.8 mph - N/A   Overcast
12:53 PM 57.9 °F 44.1 °F 60% 30.09 in 10.0 mi NW 11.5 mph - N/A   Overcast
1:53 PM 59.0 °F 45.0 °F 60% 30.10 in 10.0 mi NNW 11.5 mph 17.3 mph N/A   Mostly Cloudy
2:53 PM 59.0 °F 44.1 °F 58% 30.11 in 10.0 mi NNW 11.5 mph - N/A   Scattered Clouds
3:53 PM 61.0 °F 44.1 °F 54% 30.11 in 10.0 mi North 10.4 mph 18.4 mph N/A   Scattered Clouds
4:53 PM 60.1 °F 42.1 °F 51% 30.12 in 10.0 mi NNW 9.2 mph - N/A   Clear
5:53 PM 57.0 °F 43.0 °F 59% 30.12 in 10.0 mi NNE 12.7 mph - N/A   Partly Cloudy
6:53 PM 55.0 °F 41.0 °F 59% 30.09 in 10.0 mi NNE 12.7 mph - N/A   Clear
7:53 PM 53.1 °F 41.0 °F 64% 30.09 in 10.0 mi NE 13.8 mph 20.7 mph N/A   Clear
8:53 PM 52.0 °F 42.1 °F 69% 30.12 in 10.0 mi NE 13.8 mph - N/A   Clear
9:53 PM 51.1 °F 41.0 °F 68% 30.14 in 10.0 mi ENE 11.5 mph - N/A   Clear
10:53 PM 51.1 °F 41.0 °F 68% 30.12 in 10.0 mi NE 12.7 mph - N/A   Clear
11:53 PM 50.0 °F 37.0 °F 61% 30.11 in 10.0 mi NE 13.8 mph - N/A   Clear